When you browse on this site, cookies collect data to enhance your experience and personalize the content and advertising you see.
Visit our Privacy Policy to learn more. By continuing to use the site, you agree to this use of cookies and data.
  • în România
  • Lista ţărilor
  • Pe 7 zile
  • Temperatura apei
  • Meteo pe hartă
  • Widget-uri
  • user-avatar
    Intrare

    Meteo pe oră la Zalaegerszeg

    Astăzi, 21 Octombrie, Luni

    Timp Temperatura Precipitaţii Vânt Presiune Umiditate
    00:00 +17°C° 0 mm 5 m/s 748 mmHg 76%
    01:00 +17°C° 0 mm 6 m/s 749 mmHg 77%
    02:00 +16°C° 0 mm 5 m/s 749 mmHg 79%
    03:00 +16°C° 0 mm 5 m/s 749 mmHg 80%
    04:00 +16°C° 0 mm 5 m/s 748 mmHg 81%
    05:00 +17°C° 0 mm 4 m/s 749 mmHg 83%
    06:00 +15°C° 0 mm 4 m/s 749 mmHg 84%
    07:00 +15°C° 0 mm 4 m/s 749 mmHg 85%
    08:00 +18°C° 0 mm 4 m/s 749 mmHg 76%
    09:00 +20°C° 0 mm 5 m/s 750 mmHg 68%
    10:00 +23°C° 0 mm 6 m/s 750 mmHg 59%
    11:00 +25°C° 0 mm 5 m/s 750 mmHg 56%
    12:00 +26°C° 0 mm 5 m/s 750 mmHg 53%
    13:00 +27°C° 0 mm 5 m/s 750 mmHg 50%
    14:00 +26°C° 0 mm 4 m/s 750 mmHg 53%
    15:00 +26°C° 0 mm 3 m/s 750 mmHg 55%
    16:00 +25°C° 0 mm 3 m/s 750 mmHg 58%
    17:00 +23°C° 0 mm 2 m/s 750 mmHg 64%
    18:00 +20°C° 0 mm 2 m/s 750 mmHg 70%
    19:00 +19°C° 0 mm 2 m/s 750 mmHg 76%
    20:00 +18°C° 0 mm 2 m/s 751 mmHg 79%
    21:00 +18°C° 0 mm 1 m/s 751 mmHg 81%
    22:00 +18°C° 0 mm 1 m/s 751 mmHg 84%
    23:00 +16°C° 0 mm 1 m/s 751 mmHg 86%

    Mâine, 22 Octombrie, Marţi

    Timp Temperatura Precipitaţii Vânt Presiune Umiditate
    00:00 +16°C° 0 mm 1 m/s 751 mmHg 88%
    01:00 +15°C° 0 mm 1 m/s 751 mmHg 89%
    02:00 +15°C° 0 mm 1 m/s 751 mmHg 91%
    03:00 +14°C° 0 mm 1 m/s 751 mmHg 92%
    04:00 +14°C° 0 mm 1 m/s 751 mmHg 93%
    05:00 +14°C° 0 mm 1 m/s 752 mmHg 93%
    06:00 +14°C° 0 mm 1 m/s 752 mmHg 94%
    07:00 +14°C° 0 mm 1 m/s 752 mmHg 94%
    08:00 +16°C° 0 mm 1 m/s 752 mmHg 86%
    09:00 +18°C° 0 mm 2 m/s 753 mmHg 78%
    10:00 +19°C° 0 mm 2 m/s 753 mmHg 70%
    11:00 +20°C° 0 mm 2 m/s 753 mmHg 66%
    12:00 +21°C° 0 mm 2 m/s 753 mmHg 62%
    13:00 +23°C° 0 mm 1 m/s 753 mmHg 58%
    14:00 +23°C° 0 mm 1 m/s 752 mmHg 61%
    15:00 +22°C° 0 mm 1 m/s 752 mmHg 64%
    16:00 +22°C° 0 mm 1 m/s 752 mmHg 67%
    17:00 +20°C° 0 mm 1 m/s 752 mmHg 71%
    18:00 +19°C° 0 mm 1 m/s 752 mmHg 76%
    19:00 +18°C° 0 mm 1 m/s 752 mmHg 81%
    20:00 +18°C° 0 mm 1 m/s 752 mmHg 82%
    21:00 +15°C° 0 mm 0 m/s 752 mmHg 84%
    22:00 +15°C° 0 mm 0 m/s 752 mmHg 86%
    23:00 +15°C° 0 mm 0 m/s 752 mmHg 87%

    Poimâine, 23 Octombrie, Miercuri

    Timp Temperatura Precipitaţii Vânt Presiune Umiditate
    00:00 +14°C° 0 mm 0 m/s 752 mmHg 87%
    01:00 +14°C° 0 mm 0 m/s 752 mmHg 88%
    02:00 +14°C° 0 mm 0 m/s 751 mmHg 89%
    03:00 +13°C° 0 mm 0 m/s 751 mmHg 89%
    04:00 +13°C° 0 mm 0 m/s 751 mmHg 90%
    05:00 +13°C° 0 mm 0 m/s 751 mmHg 90%
    06:00 +13°C° 0 mm 0 m/s 751 mmHg 90%
    07:00 +13°C° 0 mm 0 m/s 751 mmHg 90%
    08:00 +16°C° 0 mm 1 m/s 751 mmHg 80%
    09:00 +19°C° 0 mm 1 m/s 751 mmHg 71%
    10:00 +21°C° 0 mm 1 m/s 751 mmHg 61%
    11:00 +23°C° 0 mm 2 m/s 750 mmHg 56%
    12:00 +24°C° 0 mm 2 m/s 750 mmHg 51%
    13:00 +25°C° 0 mm 3 m/s 750 mmHg 46%
    14:00 +24°C° 0 mm 2 m/s 749 mmHg 49%
    15:00 +24°C° 0 mm 2 m/s 749 mmHg 52%
    16:00 +23°C° 0 mm 2 m/s 748 mmHg 56%
    17:00 +20°C° 0 mm 2 m/s 748 mmHg 62%
    18:00 +19°C° 0 mm 2 m/s 748 mmHg 69%
    19:00 +17°C° 0 mm 2 m/s 748 mmHg 75%
    20:00 +16°C° 0 mm 3 m/s 748 mmHg 77%
    21:00 +16°C° 0 mm 3 m/s 748 mmHg 79%
    22:00 +16°C° 0 mm 3 m/s 748 mmHg 82%
    23:00 +14°C° 0 mm 3 m/s 748 mmHg 84%

    24 Octombrie, Joi

    Timp Temperatura Precipitaţii Vânt Presiune Umiditate
    00:00 +14°C° 0 mm 3 m/s 748 mmHg 86%
    01:00 +14°C° 0 mm 2 m/s 748 mmHg 88%
    02:00 +14°C° 0 mm 2 m/s 747 mmHg 89%
    03:00 +13°C° 0 mm 3 m/s 747 mmHg 90%
    04:00 +13°C° 0 mm 3 m/s 747 mmHg 91%
    05:00 +12°C° 0 mm 3 m/s 747 mmHg 91%
    06:00 +12°C° 0 mm 3 m/s 747 mmHg 90%
    07:00 +12°C° 0 mm 3 m/s 747 mmHg 89%
    08:00 +16°C° 0 mm 3 m/s 747 mmHg 77%
    09:00 +18°C° 0 mm 4 m/s 747 mmHg 65%
    10:00 +20°C° 0 mm 5 m/s 747 mmHg 53%
    11:00 +22°C° 0 mm 5 m/s 747 mmHg 47%
    12:00 +23°C° 0 mm 5 m/s 747 mmHg 41%
    13:00 +26°C° 0 mm 5 m/s 747 mmHg 35%
    14:00 +25°C° 0 mm 4 m/s 746 mmHg 39%
    15:00 +23°C° 0 mm 4 m/s 746 mmHg 44%
    16:00 +22°C° 0 mm 3 m/s 746 mmHg 48%
    17:00 +20°C° 0 mm 3 m/s 746 mmHg 53%
    18:00 +19°C° 0 mm 2 m/s 746 mmHg 58%
    19:00 +17°C° 0 mm 2 m/s 747 mmHg 63%
    20:00 +17°C° 0 mm 2 m/s 747 mmHg 64%
    21:00 +16°C° 0 mm 2 m/s 747 mmHg 65%
    22:00 +16°C° 0 mm 1 m/s 747 mmHg 66%
    23:00 +15°C° 0 mm 1 m/s 748 mmHg 69%

    25 Octombrie, Vineri

    Timp Temperatura Precipitaţii Vânt Presiune Umiditate
    00:00 +15°C° 0 mm 1 m/s 748 mmHg 71%
    01:00 +14°C° 0 mm 1 m/s 748 mmHg 73%
    02:00 +14°C° 0 mm 1 m/s 748 mmHg 76%
    03:00 +13°C° 0 mm 1 m/s 748 mmHg 78%
    04:00 +12°C° 0 mm 0 m/s 748 mmHg 81%
    05:00 +13°C° 0 mm 1 m/s 749 mmHg 82%
    06:00 +13°C° 0 mm 1 m/s 749 mmHg 83%
    07:00 +12°C° 0 mm 2 m/s 750 mmHg 85%
    08:00 +15°C° 0 mm 2 m/s 750 mmHg 76%
    09:00 +17°C° 0 mm 3 m/s 750 mmHg 67%
    10:00 +19°C° 0 mm 4 m/s 751 mmHg 59%
    11:00 +20°C° 0 mm 4 m/s 751 mmHg 56%
    12:00 +21°C° 0 mm 4 m/s 751 mmHg 53%
    13:00 +22°C° 0 mm 4 m/s 751 mmHg 51%
    14:00 +22°C° 0 mm 3 m/s 751 mmHg 54%
    15:00 +21°C° 0 mm 3 m/s 751 mmHg 57%
    16:00 +20°C° 0 mm 2 m/s 751 mmHg 61%
    17:00 +18°C° 0 mm 2 m/s 751 mmHg 66%
    18:00 +17°C° 0 mm 2 m/s 751 mmHg 72%
    19:00 +15°C° 0 mm 2 m/s 751 mmHg 78%
    20:00 +15°C° 0 mm 2 m/s 752 mmHg 80%
    21:00 +14°C° 0 mm 2 m/s 752 mmHg 83%
    22:00 +14°C° 0 mm 1 m/s 752 mmHg 85%
    23:00 +14°C° 0 mm 1 m/s 752 mmHg 86%

    26 Octombrie, Sâmbătă

    Timp Temperatura Precipitaţii Vânt Presiune Umiditate
    00:00 +13°C° 0 mm 1 m/s 752 mmHg 88%
    01:00 +13°C° 0 mm 1 m/s 752 mmHg 89%
    02:00 +13°C° 0 mm 1 m/s 752 mmHg 90%
    03:00 +12°C° 0 mm 1 m/s 752 mmHg 90%
    04:00 +11°C° 0 mm 0 m/s 752 mmHg 90%
    05:00 +11°C° 0 mm 0 m/s 752 mmHg 91%
    06:00 +11°C° 0 mm 0 m/s 752 mmHg 91%
    07:00 +11°C° 0 mm 0 m/s 752 mmHg 91%
    08:00 +14°C° 0 mm 1 m/s 752 mmHg 82%
    09:00 +16°C° 0 mm 1 m/s 752 mmHg 72%
    10:00 +20°C° 0 mm 1 m/s 752 mmHg 63%
    11:00 +20°C° 0 mm 2 m/s 752 mmHg 57%
    12:00 +21°C° 0 mm 2 m/s 752 mmHg 51%
    13:00 +23°C° 0 mm 2 m/s 751 mmHg 45%
    14:00 +23°C° 0 mm 2 m/s 751 mmHg 48%
    15:00 +22°C° 0 mm 1 m/s 750 mmHg 51%
    16:00 +21°C° 0 mm 1 m/s 750 mmHg 55%
    17:00 +19°C° 0 mm 1 m/s 750 mmHg 60%
    18:00 +18°C° 0 mm 1 m/s 751 mmHg 65%
    19:00 +15°C° 0 mm 1 m/s 751 mmHg 71%
    20:00 +15°C° 0 mm 1 m/s 751 mmHg 74%
    21:00 +14°C° 0 mm 1 m/s 751 mmHg 77%
    22:00 +14°C° 0 mm 1 m/s 751 mmHg 80%
    23:00 +13°C° 0 mm 1 m/s 751 mmHg 82%

    27 Octombrie, Duminică

    Timp Temperatura Precipitaţii Vânt Presiune Umiditate
    00:00 +13°C° 0 mm 1 m/s 751 mmHg 84%
    01:00 +13°C° 0 mm 1 m/s 751 mmHg 86%
    02:00 +12°C° 0 mm 1 m/s 751 mmHg 87%
    03:00 +12°C° 0 mm 1 m/s 751 mmHg 87%
    04:00 +12°C° 0 mm 1 m/s 751 mmHg 88%
    05:00 +12°C° 0 mm 1 m/s 751 mmHg 88%
    06:00 +12°C° 0 mm 1 m/s 751 mmHg 88%
    07:00 +12°C° 0 mm 1 m/s 752 mmHg 88%
    08:00 +14°C° 0 mm 1 m/s 752 mmHg 79%
    09:00 +16°C° 0 mm 2 m/s 752 mmHg 70%
    10:00 +19°C° 0 mm 2 m/s 752 mmHg 61%
    11:00 +20°C° 0 mm 3 m/s 752 mmHg 57%
    12:00 +21°C° 0 mm 3 m/s 752 mmHg 53%
    13:00 +22°C° 0 mm 3 m/s 752 mmHg 49%
    14:00 +21°C° 0 mm 3 m/s 752 mmHg 52%
    15:00 +21°C° 0 mm 2 m/s 751 mmHg 55%
    16:00 +20°C° 0 mm 2 m/s 751 mmHg 57%
    17:00 +18°C° 0 mm 2 m/s 751 mmHg 62%
    18:00 +17°C° 0 mm 2 m/s 752 mmHg 66%
    19:00 +15°C° 0 mm 2 m/s 752 mmHg 70%
    20:00 +15°C° 0 mm 2 m/s 752 mmHg 73%
    21:00 +14°C° 0 mm 2 m/s 752 mmHg 75%
    22:00 +14°C° 0 mm 2 m/s 753 mmHg 78%
    23:00 +13°C° 0 mm 2 m/s 752 mmHg 80%
    Arată mai mult